軌道要素
Orbital elements by K. Muraoka,
from 42 observations 1999 Apr. 8 to May 13,
m.e. = +/- 0.92 arc seconds.
T = 1998 July 31.9308 TT
Peri. = 136.0145
Node = 23.4840 (2000.0)
Incl. = 76.3145
q = 4.040547 AU
e = 0.845170
a = 26.096670 AU
n = 0.0073931
P = 133.32 years
|